GW6765 Weather Reports


time (UTC)temp
F
wind
direction
speed
knots
gust
knots
rain 1hr
in
rain 24hr
in
rain mn
in
humidity
%
barometer
mb
20260507141724 43 348 15.6 22.6 0.00 0.00 0.00 58 866.1
20260507130153 43 339 12.2 19.1 0.00 0.00 0.00 55 865.7
20260507120126 43 350 10.4 19.1 0.00 0.00 0.00 52 866.0
20260507110122 43 327 11.3 15.6 0.00 0.00 0.00 59 866.1
20260507100153 43 338 12.2 20.0 0.00 0.00 0.00 62 866.3
20260507090128 43 338 11.3 18.2 0.00 0.00 0.00 54 866.5
20260507080126 45 329 11.3 17.4 0.00 0.00 0.00 45 866.8
20260507070136 46 340 9.6 17.4 0.00 0.00 0.00 46 867.2
20260507060148 47 300 11.3 13.9 0.00 0.00 0.00 43 867.6
20260507050156 49 311 10.4 17.4 0.00 0.00 0.00 46 867.6
20260507043345 50 355 8.7 15.6 0.00 0.00 0.00 48 867.7
20260507030204 52 274 10.4 17.4 0.00 0.00 0.00 48 867.4
20260507020055 53 280 10.4 17.4 0.00 0.00 0.00 50 867.5
20260507012055 58 269 9.6 17.4 0.00 0.00 0.00 58 867.3
20260507001758 58 266 11.3 15.6 0.00 0.00 0.00 48 867.4
20260506231038 60 296 9.6 13.0 0.00 0.00 0.00 44 867.7
20260506220709 59 279 16.5 20.9 0.00 0.00 0.00 44 868.1
20260506210309 58 293 7.8 19.1 0.00 0.00 0.00 48 868.5
20260506202736 57 233 12.2 20.9 0.00 0.00 0.00 48 868.6
20260506191750 55 269 9.6 12.2 0.00 0.00 0.00 52 868.9
20260506181258 53 217 5.2 7.8 0.00 0.00 0.00 55 868.7
20260506171019 53 239 5.2 7.8 0.00 0.00 0.00 55 868.5
20260506160402 50 233 2.6 4.3 0.00 0.00 0.00 56 868.3
20260506152855 50 232 0.9 3.5 0.00 0.00 0.00 53 868.2